Terminal Aerodrome Forecast
Issued by NWS Twin Cities, MN

Home | Current Version | Previous Version | Graphics & Text | Print | Product List | Glossary On
Versions: 1 2 3 4 5 6 7 8 9 10 11 12 13 14 15 16 17
000
FTUS43 KMPX 271618 AAB
TAFEAU
TAF AMD
KEAU 271618Z 2716/2812 29014G22KT P6SM VCSH SCT020 OVC030
     FM271800 30012G20KT P6SM -SHRA SCT015 OVC025
      TEMPO 2720/2724 4SM -RA
     FM280000 32008KT 6SM -SHRA BR SCT008 OVC015
     FM280500 34007KT P6SM OVC008=

USA.gov is the U.S. government's official web portal to all federal, state and local government web resources and services.